Location: Whitehorse
(60.7170°N, 135.0500°W)
Time: 03:50:15
(UTC-08:00)

Envisat - Pass Details

Date: 26 October 2019
Orbit: 764 x 766 km, 98.1° (Epoch: 12 November)

Event Time Altitude Azimuth Distance (km) Brightness Sun altitude
Rises 21:53:07 0° 228° (SW) 3,229 6.6 -26.5°
Reaches altitude 10° 21:56:56 10° 258° (WSW) 2,309 6.1 -26.9°
Maximum altitude 21:59:02 12° 282° (WNW) 2,146 6.2 -27.2°
Drops below altitude 10° 22:01:08 10° 307° (NW) 2,315 6.4 -27.4°
Sets 22:05:00 0° 337° (NNW) 3,247 6.9 -27.8°
